AAA416 YSSY-YPAD

Flight info

Callsign AAA416
Flight time N/A
Altitude 32000
Route TESAT A576 KADOM H44 MAXEM Q60 KAKLU H309 AD
Aircraft R722/M-SDFGRWY/S

Departure

Time 2026-04-30 08:26
Airport Sydney Kingsford Smith International Airport (YSSY)

Arrival

Time N/A
Airport Adelaide International Airport (YPAD)
Time Latitude Longitude Altitude Speed Heading
2026-04-30 07:56 -33.93112 151.16770 33 ft 0 kts 257°
2026-04-30 08:10 -33.93111 151.16772 33 ft 2 kts 257°
2026-04-30 08:10 -33.93105 151.16802 33 ft 4 kts 254°
2026-04-30 08:10 -33.93097 151.16833 33 ft 4 kts 249°
2026-04-30 08:11 -33.93086 151.16862 33 ft 4 kts 243°
2026-04-30 08:11 -33.93071 151.16889 33 ft 4 kts 229°
2026-04-30 08:11 -33.93051 151.16906 33 ft 4 kts 191°
2026-04-30 08:11 -33.93042 151.16905 33 ft 0 kts 167°
2026-04-30 08:15 -33.93060 151.16910 33 ft 7 kts 167°
2026-04-30 08:16 -33.93118 151.16926 33 ft 9 kts 167°
2026-04-30 08:16 -33.93188 151.16944 33 ft 11 kts 168°
2026-04-30 08:16 -33.93266 151.16977 33 ft 12 kts 144°
2026-04-30 08:16 -33.93334 151.17048 33 ft 13 kts 148°
2026-04-30 08:17 -33.93425 151.17084 33 ft 15 kts 168°
2026-04-30 08:17 -33.93532 151.17111 33 ft 16 kts 168°
2026-04-30 08:17 -33.93648 151.17140 32 ft 18 kts 168°
2026-04-30 08:17 -33.93773 151.17173 32 ft 19 kts 167°
2026-04-30 08:18 -33.93872 151.17198 32 ft 14 kts 168°
2026-04-30 08:18 -33.94006 151.17232 32 ft 22 kts 168°
2026-04-30 08:18 -33.94162 151.17272 32 ft 23 kts 168°
2026-04-30 08:18 -33.94319 151.17314 33 ft 23 kts 167°
2026-04-30 08:19 -33.94477 151.17355 34 ft 23 kts 167°
2026-04-30 08:19 -33.94638 151.17398 34 ft 24 kts 168°
2026-04-30 08:19 -33.94804 151.17441 33 ft 25 kts 168°
2026-04-30 08:19 -33.94976 151.17485 33 ft 25 kts 168°
2026-04-30 08:20 -33.95148 151.17529 33 ft 26 kts 168°
2026-04-30 08:20 -33.95325 151.17575 33 ft 26 kts 168°
2026-04-30 08:20 -33.95503 151.17622 33 ft 26 kts 168°
2026-04-30 08:20 -33.95683 151.17669 34 ft 26 kts 168°
2026-04-30 08:21 -33.95864 151.17716 33 ft 27 kts 167°
2026-04-30 08:21 -33.96048 151.17763 34 ft 27 kts 168°
2026-04-30 08:21 -33.96230 151.17810 33 ft 26 kts 168°
2026-04-30 08:21 -33.96348 151.17840 33 ft 11 kts 168°
2026-04-30 08:22 -33.96422 151.17879 33 ft 12 kts 129°
2026-04-30 08:22 -33.96434 151.17935 33 ft 0 kts 84°
2026-04-30 08:23 -33.96433 151.17942 33 ft 5 kts 84°
2026-04-30 08:23 -33.96421 151.18011 33 ft 11 kts 67°
2026-04-30 08:23 -33.96363 151.18046 33 ft 0 kts 352°
2026-04-30 08:25 -33.96294 151.18032 33 ft 34 kts 351°
2026-04-30 08:25 -33.95802 151.17906 32 ft 108 kts 347°
2026-04-30 08:25 -33.94877 151.17670 39 ft 159 kts 348°
2026-04-30 08:26 -33.93762 151.17357 507 ft 167 kts 350°
2026-04-30 08:26 -33.92615 151.16989 1064 ft 173 kts 349°
2026-04-30 08:26 -33.91432 151.16640 1670 ft 178 kts 351°
2026-04-30 08:26 -33.90220 151.16280 2350 ft 180 kts 348°
2026-04-30 08:27 -33.89001 151.15875 2991 ft 191 kts 349°
2026-04-30 08:27 -33.87658 151.15479 3542 ft 209 kts 349°
2026-04-30 08:27 -33.86166 151.14994 4072 ft 235 kts 348°
2026-04-30 08:27 -33.84508 151.14468 4657 ft 256 kts 345°
2026-04-30 08:28 -33.82964 151.13265 5307 ft 278 kts 316°
2026-04-30 08:28 -33.81786 151.11432 5926 ft 274 kts 301°
2026-04-30 08:28 -33.80932 151.09398 6515 ft 271 kts 298°
2026-04-30 08:28 -33.80014 151.07387 7067 ft 282 kts 301°
2026-04-30 08:29 -33.78971 151.05309 7635 ft 295 kts 303°
2026-04-30 08:29 -33.77879 151.03205 8218 ft 297 kts 303°
2026-04-30 08:29 -33.76785 151.01113 8807 ft 294 kts 303°
2026-04-30 08:29 -33.75699 150.99042 9389 ft 292 kts 303°
2026-04-30 08:30 -33.74620 150.96982 9963 ft 291 kts 303°
2026-04-30 08:30 -33.73542 150.94925 10528 ft 290 kts 304°
2026-04-30 08:30 -33.72481 150.92900 11047 ft 290 kts 304°
2026-04-30 08:30 -33.71409 150.90853 11592 ft 288 kts 303°
2026-04-30 08:31 -33.70786 150.88609 11996 ft 289 kts 271°
2026-04-30 08:31 -33.70781 150.86220 12614 ft 284 kts 272°
2026-04-30 08:31 -33.70687 150.83861 13197 ft 281 kts 276°
2026-04-30 08:31 -33.70537 150.81502 13795 ft 288 kts 277°
2026-04-30 08:32 -33.70356 150.79030 14263 ft 306 kts 277°
2026-04-30 08:32 -33.70153 150.76410 14635 ft 323 kts 277°
2026-04-30 08:32 -33.69935 150.73666 15027 ft 338 kts 276°
2026-04-30 08:32 -33.69704 150.70782 15412 ft 354 kts 276°
2026-04-30 08:33 -33.69460 150.67768 15810 ft 371 kts 276°
2026-04-30 08:33 -33.69205 150.64612 16219 ft 388 kts 276°
2026-04-30 08:33 -33.68939 150.61391 16599 ft 396 kts 276°
2026-04-30 08:33 -33.68689 150.58076 16988 ft 399 kts 274°
2026-04-30 08:34 -33.68665 150.54746 17370 ft 401 kts 266°
2026-04-30 08:34 -33.68998 150.51406 17762 ft 404 kts 261°
2026-04-30 08:34 -33.69471 150.48066 18155 ft 407 kts 260°
2026-04-30 08:34 -33.69863 150.44691 18552 ft 410 kts 264°
2026-04-30 08:35 -33.70084 150.41271 18908 ft 413 kts 266°
2026-04-30 08:35 -33.70334 150.37824 19269 ft 416 kts 263°
2026-04-30 08:35 -33.70688 150.34359 19622 ft 419 kts 262°
2026-04-30 08:35 -33.71031 150.30873 19974 ft 422 kts 264°
2026-04-30 08:36 -33.71313 150.27369 20334 ft 422 kts 264°
2026-04-30 08:36 -33.71601 150.23869 20694 ft 420 kts 264°
2026-04-30 08:36 -33.71920 150.20383 21061 ft 419 kts 263°
2026-04-30 08:36 -33.72235 150.16908 21422 ft 418 kts 263°
2026-04-30 08:37 -33.72530 150.13438 21793 ft 418 kts 264°
2026-04-30 08:37 -33.72824 150.09969 22171 ft 417 kts 264°
2026-04-30 08:37 -33.73128 150.06509 22550 ft 416 kts 264°
2026-04-30 08:37 -33.73428 150.03051 22932 ft 416 kts 264°
2026-04-30 08:38 -33.73722 149.99599 23323 ft 415 kts 264°
2026-04-30 08:38 -33.74015 149.96152 23717 ft 414 kts 264°
2026-04-30 08:38 -33.74307 149.92754 24090 ft 414 kts 263°
2026-04-30 08:38 -33.74601 149.89317 24423 ft 413 kts 264°
2026-04-30 08:39 -33.74890 149.85884 24757 ft 413 kts 264°
2026-04-30 08:39 -33.75179 149.82447 25095 ft 412 kts 263°
2026-04-30 08:39 -33.75469 149.79022 25444 ft 412 kts 263°
2026-04-30 08:39 -33.75757 149.75601 25797 ft 411 kts 264°
2026-04-30 08:40 -33.76040 149.72180 26151 ft 411 kts 264°
2026-04-30 08:40 -33.76326 149.68753 26502 ft 411 kts 263°
2026-04-30 08:40 -33.76611 149.65344 26865 ft 410 kts 263°
2026-04-30 08:40 -33.76893 149.61927 27234 ft 410 kts 263°
2026-04-30 08:41 -33.77170 149.58560 27593 ft 410 kts 263°
2026-04-30 08:41 -33.77451 149.55150 27971 ft 409 kts 263°
2026-04-30 08:41 -33.77731 149.51748 28361 ft 409 kts 263°
2026-04-30 08:41 -33.78008 149.48343 28732 ft 409 kts 263°
2026-04-30 08:42 -33.78284 149.44938 29131 ft 408 kts 263°
2026-04-30 08:42 -33.78561 149.41544 29525 ft 408 kts 263°
2026-04-30 08:42 -33.78835 149.38157 29930 ft 407 kts 263°
2026-04-30 08:42 -33.79104 149.34795 30327 ft 407 kts 263°
2026-04-30 08:43 -33.79375 149.31415 30693 ft 406 kts 263°
2026-04-30 08:43 -33.79646 149.28039 31043 ft 406 kts 263°
2026-04-30 08:43 -33.79916 149.24657 31388 ft 405 kts 263°
2026-04-30 08:43 -33.80182 149.21288 31753 ft 405 kts 263°
2026-04-30 08:44 -33.80450 149.17915 31982 ft 408 kts 263°
2026-04-30 08:44 -33.80999 149.10955 31996 ft 426 kts 264°
2026-04-30 08:45 -33.81564 149.03712 31991 ft 442 kts 264°
2026-04-30 08:45 -33.82140 148.96275 31987 ft 456 kts 264°
2026-04-30 08:46 -33.82735 148.88548 31982 ft 472 kts 264°
2026-04-30 08:46 -33.83344 148.80555 32104 ft 485 kts 264°
2026-04-30 08:46 -33.83653 148.76494 32240 ft 487 kts 264°
2026-04-30 08:47 -33.83956 148.72449 32364 ft 485 kts 264°
2026-04-30 08:47 -33.84563 148.64385 32360 ft 488 kts 264°
2026-04-30 08:48 -33.85169 148.56204 32358 ft 492 kts 264°
2026-04-30 08:48 -33.85774 148.47989 32371 ft 494 kts 265°
2026-04-30 08:49 -33.86378 148.39718 32371 ft 497 kts 265°
2026-04-30 08:49 -33.86976 148.31409 32369 ft 499 kts 265°
2026-04-30 08:50 -33.87577 148.23067 32365 ft 501 kts 265°
2026-04-30 08:50 -33.88164 148.14756 32364 ft 502 kts 265°
2026-04-30 08:51 -33.88752 148.06373 32358 ft 503 kts 265°
2026-04-30 08:51 -33.89338 147.97956 32357 ft 504 kts 265°
2026-04-30 08:52 -33.89918 147.89520 32351 ft 505 kts 265°
2026-04-30 08:52 -33.90494 147.81071 32347 ft 506 kts 265°
2026-04-30 08:53 -33.91060 147.72669 32353 ft 507 kts 265°
2026-04-30 08:53 -33.91626 147.64205 32350 ft 507 kts 265°
2026-04-30 08:54 -33.92184 147.55727 32347 ft 507 kts 266°
2026-04-30 08:54 -33.92741 147.47239 32346 ft 508 kts 266°
2026-04-30 08:55 -33.93286 147.38817 32346 ft 508 kts 266°
2026-04-30 08:55 -33.93827 147.30319 32345 ft 508 kts 266°
2026-04-30 08:56 -33.94367 147.21827 32346 ft 508 kts 266°
2026-04-30 08:56 -33.94897 147.13340 32342 ft 508 kts 266°
2026-04-30 08:57 -33.95422 147.04847 32344 ft 508 kts 267°
2026-04-30 08:57 -33.95944 146.96364 32344 ft 508 kts 267°
2026-04-30 08:58 -33.96902 146.87955 32336 ft 509 kts 254°
2026-04-30 08:58 -33.99451 146.80037 32338 ft 503 kts 247°
2026-04-30 08:59 -34.01850 146.73711 32334 ft 495 kts 250°
2026-04-30 08:59 -34.04800 146.64836 32320 ft 487 kts 249°
2026-04-30 09:00 -34.07041 146.58641 32319 ft 481 kts 249°
2026-04-30 09:00 -34.09567 146.51187 32316 ft 479 kts 250°
2026-04-30 09:01 -34.12589 146.42551 32324 ft 477 kts 250°
2026-04-30 09:01 -34.14694 146.36394 32325 ft 476 kts 250°
2026-04-30 09:02 -34.18492 146.25381 32318 ft 475 kts 250°
2026-04-30 09:02 -34.21022 146.18004 32315 ft 475 kts 250°
2026-04-30 09:03 -34.23549 146.10622 32313 ft 474 kts 250°
2026-04-30 09:03 -34.25458 146.03113 32307 ft 468 kts 262°
2026-04-30 09:04 -34.26300 145.95311 32311 ft 470 kts 265°
2026-04-30 09:04 -34.27331 145.87439 32299 ft 477 kts 263°
2026-04-30 09:05 -34.28279 145.79464 32294 ft 481 kts 265°
2026-04-30 09:05 -34.29275 145.71425 32299 ft 485 kts 263°
2026-04-30 09:06 -34.30251 145.63316 32297 ft 488 kts 264°
2026-04-30 09:06 -34.31235 145.55211 32304 ft 491 kts 264°
2026-04-30 09:07 -34.32216 145.46998 32303 ft 494 kts 264°
2026-04-30 09:07 -34.33201 145.38766 32301 ft 494 kts 264°
2026-04-30 09:08 -34.34169 145.30600 32289 ft 487 kts 264°
2026-04-30 09:08 -34.35120 145.22537 32292 ft 481 kts 264°
2026-04-30 09:09 -34.36054 145.14553 32288 ft 477 kts 264°
2026-04-30 09:09 -34.36978 145.06640 32290 ft 473 kts 264°
2026-04-30 09:10 -34.37889 144.98779 32296 ft 470 kts 264°
2026-04-30 09:10 -34.38783 144.91008 32290 ft 467 kts 264°
2026-04-30 09:11 -34.39676 144.83228 32284 ft 465 kts 264°
2026-04-30 09:11 -34.40558 144.75476 32283 ft 463 kts 265°
2026-04-30 09:12 -34.41432 144.67755 32284 ft 462 kts 265°
2026-04-30 09:12 -34.42300 144.60059 32286 ft 460 kts 265°
2026-04-30 09:13 -34.43156 144.52412 32279 ft 459 kts 265°
2026-04-30 09:13 -34.44007 144.44757 32287 ft 458 kts 265°
2026-04-30 09:14 -34.44855 144.37103 32284 ft 458 kts 265°
2026-04-30 09:14 -34.45695 144.29455 32283 ft 457 kts 265°
2026-04-30 09:15 -34.46526 144.21873 32283 ft 456 kts 265°
2026-04-30 09:15 -34.47355 144.14250 32286 ft 456 kts 266°
2026-04-30 09:16 -34.48177 144.06632 32289 ft 456 kts 266°
2026-04-30 09:16 -34.48996 143.99012 32288 ft 455 kts 266°
2026-04-30 09:17 -34.49810 143.91401 32281 ft 455 kts 266°
2026-04-30 09:17 -34.50617 143.83796 32281 ft 455 kts 266°
2026-04-30 09:18 -34.51419 143.76194 32281 ft 455 kts 266°
2026-04-30 09:18 -34.52218 143.68578 32276 ft 455 kts 266°
2026-04-30 09:19 -34.53012 143.60963 32276 ft 455 kts 266°
2026-04-30 09:19 -34.53800 143.53354 32276 ft 454 kts 266°
2026-04-30 09:20 -34.54583 143.45745 32277 ft 454 kts 266°
2026-04-30 09:20 -34.55364 143.38136 32274 ft 454 kts 266°
2026-04-30 09:21 -34.56130 143.30572 32272 ft 454 kts 266°
2026-04-30 09:21 -34.56901 143.22961 32272 ft 454 kts 267°
2026-04-30 09:22 -34.57665 143.15349 32267 ft 454 kts 267°
2026-04-30 09:22 -34.58425 143.07729 32268 ft 454 kts 267°
2026-04-30 09:23 -34.59182 143.00114 32276 ft 455 kts 267°
2026-04-30 09:23 -34.59926 142.92534 32264 ft 455 kts 267°
2026-04-30 09:24 -34.60673 142.84913 32262 ft 455 kts 267°
2026-04-30 09:24 -34.61415 142.77288 32263 ft 455 kts 268°
2026-04-30 09:25 -34.62150 142.69659 32263 ft 455 kts 268°
2026-04-30 09:25 -34.62884 142.62023 32263 ft 454 kts 268°
2026-04-30 09:26 -34.63597 142.54389 32264 ft 454 kts 269°
2026-04-30 09:26 -34.63994 142.46810 32255 ft 452 kts 271°
2026-04-30 09:27 -34.64441 142.39186 32256 ft 453 kts 269°
2026-04-30 09:27 -34.64867 142.31567 32256 ft 452 kts 270°
2026-04-30 09:28 -34.65292 142.23945 32256 ft 452 kts 269°
2026-04-30 09:28 -34.65712 142.16337 32255 ft 451 kts 270°
2026-04-30 09:29 -34.66126 142.08725 32253 ft 451 kts 269°
2026-04-30 09:29 -34.66534 142.01120 32250 ft 451 kts 269°
2026-04-30 09:30 -34.66940 141.93524 32251 ft 450 kts 269°
2026-04-30 09:30 -34.67337 141.85984 32245 ft 450 kts 269°
2026-04-30 09:31 -34.67728 141.78400 32241 ft 449 kts 268°
2026-04-30 09:31 -34.68120 141.70815 32244 ft 449 kts 268°
2026-04-30 09:32 -34.68502 141.63249 32243 ft 448 kts 268°
2026-04-30 09:32 -34.68881 141.55694 32243 ft 448 kts 268°
2026-04-30 09:33 -34.69255 141.48132 32241 ft 447 kts 268°
2026-04-30 09:33 -34.69622 141.40635 32240 ft 447 kts 268°
2026-04-30 09:34 -34.69986 141.33094 32237 ft 447 kts 268°
2026-04-30 09:34 -34.70343 141.25554 32237 ft 446 kts 269°
2026-04-30 09:35 -34.70699 141.18010 32233 ft 446 kts 269°
2026-04-30 09:35 -34.71047 141.10476 32231 ft 446 kts 269°
2026-04-30 09:36 -34.71393 141.02949 32228 ft 445 kts 269°
2026-04-30 09:36 -34.71729 140.95481 32231 ft 445 kts 269°
2026-04-30 09:37 -34.72063 140.87967 32225 ft 445 kts 269°
2026-04-30 09:37 -34.72394 140.80450 32225 ft 445 kts 268°
2026-04-30 09:38 -34.72718 140.72940 32221 ft 444 kts 269°
2026-04-30 09:38 -34.73039 140.65440 32218 ft 444 kts 269°
2026-04-30 09:39 -34.73353 140.57947 32218 ft 443 kts 268°
2026-04-30 09:39 -34.73664 140.50456 32214 ft 443 kts 268°
2026-04-30 09:40 -34.73967 140.43026 32214 ft 443 kts 268°
2026-04-30 09:40 -34.74266 140.35545 32217 ft 442 kts 268°
2026-04-30 09:41 -34.74562 140.28077 32205 ft 442 kts 268°
2026-04-30 09:41 -34.74853 140.20607 32199 ft 442 kts 268°
2026-04-30 09:42 -34.75138 140.13150 32202 ft 441 kts 268°
2026-04-30 09:42 -34.75420 140.05695 32196 ft 441 kts 268°
2026-04-30 09:43 -34.75693 139.98283 32195 ft 441 kts 268°
2026-04-30 09:43 -34.75967 139.90825 32192 ft 441 kts 268°
2026-04-30 09:44 -34.76234 139.83371 32195 ft 440 kts 268°
2026-04-30 09:44 -34.76496 139.75932 32201 ft 440 kts 268°
2026-04-30 09:45 -34.76753 139.68484 32196 ft 440 kts 268°
2026-04-30 09:45 -34.77008 139.61046 32197 ft 440 kts 268°
2026-04-30 09:46 -34.77255 139.53619 32192 ft 439 kts 268°
2026-04-30 09:46 -34.77497 139.46242 32192 ft 439 kts 268°
2026-04-30 09:47 -34.78010 139.38857 32195 ft 438 kts 261°
2026-04-30 09:47 -34.79548 139.31676 32206 ft 439 kts 255°
2026-04-30 09:48 -34.80927 139.24457 32198 ft 438 kts 259°
2026-04-30 09:48 -34.82088 139.18408 32194 ft 438 kts 257°
2026-04-30 09:49 -34.83504 139.11253 32193 ft 438 kts 258°
2026-04-30 09:49 -34.84877 139.04033 32207 ft 438 kts 258°
2026-04-30 09:50 -34.86514 138.96922 31050 ft 434 kts 245°
2026-04-30 09:50 -34.87605 138.94552 29945 ft 420 kts 241°